Погода в Меджибоже

Украина / Хмельницкая область     49°26′18″N   27°24′09″E
темп.,
°C
ветер,
м/с
пор.,
м/с
влажн.,
%
обл.,
%
осадки,
мм/ч
давл.,
гПа
погр.,
м
21 апреля, ср
ср2100:00+5сз338896 0.0 101155
03:00+4сз239358 0.0 101278
06:00+3зсз249519 0.0 101259
09:00+8зсз3475100 0.0 1013450
12:00+11зсз4561100 0.2 10131383
15:00+12зюз5658100 0.8 10131433
18:00+12з3664100 0.7 10131008
21:00+9ююз347468 0.8 101458
22 апреля, чт
чт2200:00+7юз4880100 0.0 1015127
03:00+8зюз3881100 0.0 1015187
06:00+7юз388585 0.0 1015163
09:00+11юз587099 0.0 1016441
12:00+15юз685467 0.2 10151722
15:00+14юз5758100 1.4 10141072
18:00+13зюз10116499 0.4 10141309
21:00+8сз349027 1.6 101682
23 апреля, пт
пт2300:00+6ссз339660 0.1 101651
03:00+5ссз5892100 1.1 1016408
06:00+5сз2687100 1.2 1017821
09:00+4ссв2385100 3.0 1018380
12:00+6зсз4572100 1.2 10181069
15:00+10зсз3744100 1.3 10172171
18:00+9сз59515 0.3 10172120
21:00+4сз36700 0.4 1019119
24 апреля, сб
сб2400:00+3зсз367675 0.0 1019104
03:00+2з4985100 0.0 1019303
06:00+1з410925 0.0 1020362
09:00+4зсз6971100 0.0 1020846
12:00+5зсз7858100 0.8 10201603
15:00+7зсз81050100 1.5 10202250
18:00+6зсз6105612 0.6 10191896
21:00+2з36692 0.8 102197
25 апреля, вс
вс2500:00+1зюз337356 0.0 102030
03:00+1зюз3786100 0.1 1020308
06:00+2з5890100 0.0 1019686
09:00+3з4675100 0.1 1019896
12:00+2сз6986100 1.1 1021794
15:00+6зсз7853100 1.2 10191743
18:00+6зсз675597 0.1 10191451
21:00+2з347494 0.3 102070